West Palm Beach, FL

8:26 PM EST on December 07, 2019 (GMT -0500)
Palm Beach International

Weather History for KPBI - October, 2019

Change the Weather History Date:

Friday, October 11, 2019

  Actual Average Record
Temperature  
Mean Temperature 80 °F 79 °F  
Max Temperature 85 °F 86 °F 91 °F (1992)
Min Temperature 75 °F 73 °F 58 °F (1903)
Degree Days  
Heating Degree Days 0 0  
Month to date heating degree days 0 0  
Since 1 July heating degree days 0 0  
Cooling Degree Days 15 14  
Month to date cooling degree days 188 165  
Year to date cooling degree days 3897 3373  
Growing Degree Days 30 (Base 50)    
Moisture  
Dew Point 72 °F    
Average Humidity 76    
Maximum Humidity 85    
Minimum Humidity 67    
Precipitation  
Precipitation 0.85 in 0.18 in 7.00 in (1964)
Month to date precipitation 4.16 2.14  
Year to date precipitation 49.51 51.21  
Snow  
Snow 0.00 in - - ()
Month to date snowfall 0.0  
Since 1 July snowfall 0.0  
Since 1 September snowfall 0.0  
Snow Depth 0.00 in    
Sea Level Pressure  
Sea Level Pressure 29.96 in    
Wind  
Wind Speed 11 mph (NE)    
Max Wind Speed 21 mph    
Max Gust Speed 27 mph    
Visibility 8 miles    
Events Rain    
T = Trace of Precipitation, MM = Missing Value Source: NWS Daily Summary

Daily Weather History Graph

Daily Weather History Graph

Search for Another Location

Airport or City:

Astronomy

Oct. 11, 2019 Rise Set
Actual Time 7:17 AM EDT 6:56 PM EDT
Civil Twilight 6:54 AM EDT 7:19 PM EDT
Nautical Twilight 6:27 AM EDT 7:46 PM EDT
Astronomical Twilight 6:00 AM EDT 8:13 PM EDT
Moon 6:07 PM EDT (10/11) 5:17 AM EDT (10/11)
Length of Visible Light 12h 25m
Length of Day
11h 38m
Waxing Gibbous, 96% of the Moon is Illuminated
Oct 11
Waxing Gibbous
Oct 13
Full
Oct 21
Last Quarter
Oct 27
New
Nov 4
First Quarter

Hourly Weather History & Observations

Time (EDT) Temp. Heat Index Dew Point Humidity Pressure Visibility Wind Dir Wind Speed Gust Speed Precip Events Conditions
12:53 AM 80.1 °F 83.6 °F 71.1 °F 74% 29.95 in 10.0 mi NE 10.4 mph - N/A   Scattered Clouds
1:53 AM 78.1 °F - 72.0 °F 81% 29.94 in 10.0 mi ENE 10.4 mph - 0.01 in   Mostly Cloudy
2:53 AM 79.0 °F - 72.0 °F 79% 29.93 in 10.0 mi ENE 8.1 mph - N/A   Mostly Cloudy
3:53 AM 79.0 °F - 73.0 °F 82% 29.91 in 10.0 mi NE 9.2 mph - 0.00 in   Mostly Cloudy
4:53 AM 78.1 °F - 73.0 °F 84% 29.91 in 10.0 mi East 6.9 mph - 0.02 in   Scattered Clouds
5:53 AM 78.1 °F - 73.0 °F 84% 29.92 in 10.0 mi NE 8.1 mph - 0.00 in   Mostly Cloudy
6:53 AM 79.0 °F - 72.0 °F 79% 29.94 in 10.0 mi ENE 9.2 mph - N/A   Mostly Cloudy
7:45 AM 78.1 °F - 72.0 °F 81% 29.94 in 10.0 mi East 8.1 mph - 0.00 in Rain Light Rain
7:53 AM 78.1 °F - 72.0 °F 81% 29.95 in 10.0 mi ENE 8.1 mph - 0.00 in   Mostly Cloudy
8:41 AM 79.0 °F - 72.0 °F 79% 29.96 in 10.0 mi ENE 8.1 mph - N/A   Mostly Cloudy
8:53 AM 81.0 °F 85.8 °F 73.0 °F 77% 29.96 in 10.0 mi ENE 9.2 mph - N/A   Mostly Cloudy
9:29 AM 82.0 °F 86.7 °F 72.0 °F 71% 29.97 in 10.0 mi ENE 11.5 mph - 0.00 in   Mostly Cloudy
9:53 AM 82.0 °F 87.4 °F 73.0 °F 74% 29.97 in 10.0 mi ENE 10.4 mph - 0.00 in   Mostly Cloudy
10:53 AM 82.0 °F 86.7 °F 72.0 °F 71% 29.98 in 10.0 mi ENE 11.5 mph - N/A   Mostly Cloudy
11:25 AM 84.9 °F 90.7 °F 72.0 °F 65% 29.99 in 10.0 mi ENE 10.4 mph - N/A   Mostly Cloudy
11:37 AM 81.0 °F 85.2 °F 72.0 °F 74% 29.99 in 10.0 mi North 19.6 mph - N/A   Mostly Cloudy
11:41 AM 79.0 °F - 72.0 °F 79% 29.99 in 10.0 mi North 15.0 mph - N/A   Mostly Cloudy
11:53 AM 78.1 °F - 72.0 °F 81% 30.00 in 7.0 mi NNE 8.1 mph - 0.00 in Rain Light Rain
11:57 AM 77.0 °F - 73.0 °F 88% 30.00 in 2.0 mi North 19.6 mph 24.2 mph 0.02 in Rain Heavy Rain
12:20 PM 75.9 °F - 73.0 °F 91% 29.99 in 2.0 mi NNE 10.4 mph - 0.24 in Rain Heavy Rain
12:34 PM 77.0 °F - 73.9 °F 90% 29.99 in 4.0 mi North 6.9 mph - 0.28 in Rain Light Rain
12:53 PM 78.1 °F - 73.9 °F 87% 29.98 in 5.0 mi NE 10.4 mph - 0.30 in Rain Light Rain
1:04 PM 77.0 °F - 73.9 °F 90% 29.98 in 2.0 mi NE 15.0 mph - 0.05 in Rain Heavy Rain
1:19 PM 77.0 °F - 73.9 °F 90% 29.97 in 6.0 mi NNE 12.7 mph - 0.17 in Rain Light Rain
1:53 PM 80.1 °F 84.2 °F 73.0 °F 79% 29.96 in 10.0 mi NE 13.8 mph - 0.17 in   Mostly Cloudy
2:21 PM 78.1 °F - 73.9 °F 87% 29.95 in 2.0 mi NNE 13.8 mph - 0.00 in Rain Heavy Rain
2:49 PM 77.0 °F - 73.4 °F 89% 29.95 in 4.0 mi North 15.0 mph - 0.11 in Rain Light Rain
2:53 PM 77.0 °F - 73.9 °F 90% 29.95 in 4.0 mi NNE 11.5 mph - 0.11 in Rain Light Rain
3:00 PM 77.0 °F - 73.0 °F 88% 29.95 in 2.0 mi NNE 17.3 mph 21.9 mph 0.01 in Rain Heavy Rain
3:21 PM 75.0 °F - 73.0 °F 94% 29.95 in 7.0 mi North 10.4 mph - 0.13 in Rain Light Rain
3:53 PM 80.1 °F 83.6 °F 71.1 °F 74% 29.94 in 10.0 mi NE 15.0 mph - 0.13 in   Mostly Cloudy
4:42 PM 80.1 °F 82.9 °F 69.1 °F 69% 29.95 in 10.0 mi NNE 12.7 mph - N/A   Mostly Cloudy
4:53 PM 80.1 °F 82.9 °F 69.1 °F 69% 29.95 in 10.0 mi NE 13.8 mph - N/A   Mostly Cloudy
5:53 PM 80.1 °F 82.7 °F 68.0 °F 67% 29.96 in 10.0 mi NE 12.7 mph - N/A   Mostly Cloudy
6:53 PM 80.1 °F 82.9 °F 69.1 °F 69% 29.96 in 10.0 mi ENE 15.0 mph - N/A   Mostly Cloudy
7:53 PM 80.1 °F 82.7 °F 68.0 °F 67% 29.96 in 10.0 mi ENE 13.8 mph 26.5 mph N/A   Mostly Cloudy
8:53 PM 80.1 °F 82.9 °F 69.1 °F 69% 29.99 in 8.0 mi ENE 16.1 mph - 0.00 in Rain Light Rain
9:53 PM 78.1 °F - 71.1 °F 79% 30.00 in 10.0 mi ENE 8.1 mph - 0.11 in   Overcast
10:53 PM 79.0 °F - 68.0 °F 69% 30.01 in 10.0 mi ENE 11.5 mph - N/A   Overcast
11:53 PM 79.0 °F - 66.9 °F 66% 30.00 in 10.0 mi ENE 15.0 mph - N/A   Scattered Clouds